Showing default

TELKOM 3S, 41944

Orbit data source: Space-Track

TELKOM 3S, 41944 is a payload satellite owned by Telkom (ID) in GEO that was launched on Tue, 14 Feb 2017 UTC via an ARIANE 5ECA launch vehicle from the French Guiana (FRGUI). Payload-class satellites include a variety of spacecraft equipped with specific instruments for various scientific and technological missions. These include communications satellites like Starlink; space stations such as the ISS; scientific satellites like the Hubble; Earth observation satellites from companies like Planet Labs, Umbra, and HawkEye 360; GPS; miniature CubeSats for education and research; and military/defense satellites.

Not visible in the next 10 days
Identifier
41944, 2017-007A
Orbit
GEO
Country
Flag of UnknownUnknown / INDO
Related business
Manufacturer
Thales Alenia
Mission
Operational Commercial Communications
Bus & Motor
SPACEBUS 4000B2, S400
Mass
3,500 kg wet, ~2,000 kg dry
Launch date (UTC)
2017-02-14 (9 years ago)
Launch vehicle
ARIANE 5ECA
Launch site
French Guiana (FRGUI)
Object type
Payload
Rocket body
Debris
Shape & HBR
Box + 2 Pan, 18.5 m
Radar Cross Section
31.794 m², Large (>1 m²)

Expand to show TLE details & history
Last TLE update: 8 hours ago

TLE from 8 hours ago
0 TELKOM 3S
1 41944U 17007A   25243.58586497  .00000000  00000-0  00000-0 0  9995
2 41944   0.0186 126.7064 0002443  38.3604 143.8528  1.00269939 31231
Epoch: 2025-08-31T14:03Z
TLE epoch observation values (Epoch: 2025-08-31T14:03:38.733Z)
Latitude
-0.00037°
Longitude
118.01616°
Altitude
35,794.96 km
Speed
3.074 km/s
True Right ascension
20h 35m 43s
True Declination
0° 00' 01"
Sunlit
Object was in daylight at epoch
Visualization orbit readout
Latitude
Unknown
Longitude
Unknown
Altitude
Unknown
Speed
Unknown
Apparent Right ascension
Unknown
Apparent Declination
Unknown
Sunlit
N/A
Visualization observer readout
Local Sidereal Time
14:12:38
Azimuth
Unknown
Elevation
Unknown
Doppler factor
Unknown
Orbital elements
Apogee altitude
35,798.484 km
Perigee altitude
35,777.882 km
Semi-major axis
42,166.32 km
Eccentricity
0.00024
Inclination
0.0186°
RAAN
126.7064°
Arg. of periapsis
38.3604°
True anomaly
143.86931°
Mean anomaly
143.8528°
Eccentric anomaly
143.86105°
Mean motion
0.25067 °/min
Orbital period
1,436.18 mins
BSTAR
0
Loading maneuver chart data...
Computing Atmospheric mass density...
Loading historical data...
Loading historical data...
Loading historical data...
Loading historical data...
Loading historical data...
Loading historical data...
Loading historical data...
Other satellites on launch #7 in the year 2017 (2017-02-14 UTC)

Documentation

Showing up to 5 results
|